Weather Roundup
Issued by NWS Springfield, MO

Home | Current Version | Previous Version | Text Only | Print | Product List | Glossary On
Versions: 1 2 3 4 5 6 7 8 9 10 11 12 13 14 15 16 17 18 19 20 21 22 23 24 25 26 27 28 29 30 31 32 33 34 35 36 37 38 39 40 41 42 43 44 45 46 47 48 49 50
000
NZUS99 KSGF 211007
HRRSGF

HOURLY WEATHER
NATIONAL WEATHER SERVICE SPRINGFIELD MO
500 AM CDT THU AUG 21 2014

......SGF CWA......

CITY           SKY/WX    TMP DP  RH WIND       PRES   REMARKS
SPRINGFIELD    CLEAR     73  67  81 S13       29.99F
JOPLIN         CLEAR     78  69  73 S17       29.97R
WEST PLAINS    CLEAR     74  69  85 SW7       30.05S
ROLLA          PTCLDY    74  65  73 S10       29.99S
OSAGE BEACH    CLEAR     72  64  78 SE3       29.97S
BRANSON        CLEAR     73  68  83 S5        30.04R

......SURROUNDING SGF CWA......

CITY           SKY/WX    TMP DP  RH WIND       PRES   REMARKS
CHANUTE        CLEAR     77  69  76 S13       29.92S
PARSONS        CLEAR     77  69  76 S6        29.94R
COFFEYVILLE    CLEAR     79  71  76 S12       29.93R
EMPORIA        CLEAR     76  69  79 S15       29.88R
GROVE OK       CLEAR     77  70  78 S8        29.99R
ROGERS AR      CLEAR     75  68  78 SE7       30.04R
SILOAM SPRINGS CLEAR     75  64  69 S7        30.02S
HARRISON AR    CLEAR     73  71  93 S6        30.05R
NEAR YELLVILLE CLEAR     72  66  83 CALM      30.03S

......KANSAS AND MISSOURI......

CITY           SKY/WX    TMP DP  RH WIND       PRES   REMARKS
KANSAS CTY INT PTCLDY    78  68  71 S14       29.88S
DOWNTOWN KC    PTCLDY    80  68  66 S14       29.88S
COLUMBIA       CLEAR     70  68  93 S7        29.95F
SEDALIA        CLEAR     76  66  71 S9        29.93F
ST JOSEPH      PTCLDY    77  70  79 S9        29.85S
ST LOUIS       MOCLDY    77  70  79 SW6       29.97F
SPIRIT OF STL  PTCLDY    71  68  90 W3        29.95F
KIRKSVILLE     CLEAR     75  67  76 S8        29.92S
WICHITA        PTCLDY    77  67  71 S14       29.88R
TOPEKA         CLEAR     81  70  69 S15G23    29.85S
OLATHE         MOCLDY    76  69  79 S10       29.89S

......TENNESSEE......

CITY           SKY/WX    TMP DP  RH WIND       PRES   REMARKS
MEMPHIS        CLEAR     78  71  79 S7        30.07R
NASHVILLE      MOCLDY    70  69  97 CALM      30.09R

......ARKANSAS.......

CITY           SKY/WX    TMP DP  RH WIND       PRES   REMARKS
FAYETTEVILLE   CLEAR     74  70  87 S8        30.03R
FT SMITH       CLEAR     75  71  87 NE5       30.00R
LITTLE ROCK    CLEAR     76  69  79 SW8       30.05R

......OKLAHOMA.......

CITY           SKY/WX    TMP DP  RH WIND       PRES   REMARKS
TULSA          CLEAR     79  70  74 S9        29.93R
PONCA CITY     CLEAR     80  69  69 S8        29.89R
MCALESTER      CLEAR     78  71  79 S8        29.99R
OKLAHOMA CITY  PTCLDY    78  69  73 S12       29.93S

......IOWA............

CITY           SKY/WX    TMP DP  RH WIND       PRES   REMARKS
DES MOINES     PTCLDY    77  70  79 S9        29.80F
QUAD CITIES    PTCLDY    72  69  90 S5        29.87F

......ILLINOIS........

CITY           SKY/WX    TMP DP  RH WIND       PRES   REMARKS
QUINCY         CLEAR     73  69  87 S7        29.93S
CHICAGO        CLOUDY    71  66  84 S3        29.95R




USA.gov is the U.S. government's official web portal to all federal, state and local government web resources and services.